Location: Petrozavodsk
(61.7955°N, 34.3748°E)
Time: 02:59:34
(UTC+03:00)

Envisat - Pass Details

Date: 03 April 2023
Orbit: 763 x 765 km, 98.2° (Epoch: 28 May)

Event Time Altitude Azimuth Distance (km) Brightness Sun altitude
Rises 05:09:23 0° 18° (NNE) 3,250 6.9 -6.5°
Reaches altitude 10° 05:11:43 10° 19° (NNE) 2,319 6.2 -6.3°
Maximum altitude 05:16:51 82° 108° (ESE) 783 3.2 -5.7°
Drops below altitude 10° 05:21:56 10° 196° (SSW) 2,303 5.1 -5.1°
Sets 05:24:14 0° 197° (SSW) 3,225 5.9 -4.9°
